Location: Dannhausen
(51.8650°N, 10.1026°E)
Time: 02:12:27
(UTC+00:00)

Cosmos 921 Rocket - Pass Details

Date: 09 April 2020
Orbit: 572 x 632 km, 75.8° (Epoch: 04 June)

Event Time Altitude Azimuth Distance (km) Brightness Sun altitude
Rises 18:58:16 0° 338° (NNW) 2,793 7.2 -8.2°
Reaches altitude 10° 19:00:28 10° 339° (NNW) 1,890 6.3 -8.5°
Maximum altitude 19:04:41 85° 69° (ENE) 583 2.9 -9.1°
Drops below altitude 10° 19:08:52 10° 158° (SSE) 1,886 5.1 -9.7°
Enters shadow 19:09:42 - 158° (SSE) 2,228 5.5 -9.8°
